Three Rivers, MI

5:21 PM EDT on April 30, 2017 (GMT -0400)
Three Rivers Municipal-Haines

Weather History for KHAI - September, 2012

Change the Weather History Date:

Saturday, September 22, 2012

  Actual Average Record
Temperature  
Mean Temperature 51 °F -  
Max Temperature 56 °F 69 °F 89 °F (1970)
Min Temperature 46 °F 48 °F 32 °F (1972)
Degree Days  
Heating Degree Days 14    
Growing Degree Days 1 (Base 50)    
Moisture  
Dew Point 47 °F    
Average Humidity 89    
Maximum Humidity 96    
Minimum Humidity 68    
Precipitation  
Precipitation 0.00 in - - ()
Sea Level Pressure  
Sea Level Pressure 29.91 in    
Wind  
Wind Speed 4 mph (WSW)    
Max Wind Speed 13 mph    
Max Gust Speed 20 mph    
Visibility 7 miles    
Events Rain    
Averages and records for this station are not official NWS values.
T = Trace of Precipitation, MM = Missing Value Source: NWS Daily Summary

Daily Weather History Graph

Daily Weather History Graph

Search for Another Location

Airport or City:

Trip Planner

Search our weather history database for the weather conditions in past years. The results will help you decide how hot, cold, wet, or windy it might be!

Date:

Astronomy

Sep. 22, 2012 Rise Set
Actual Time 7:30 AM EDT 7:38 PM EDT
Civil Twilight 7:02 AM EDT 8:06 PM EDT
Nautical Twilight 6:29 AM EDT 8:39 PM EDT
Astronomical Twilight 5:56 AM EDT 9:12 PM EDT
Moon 2:53 PM EDT (9/22) No Moon Set
Length of Visible Light 13h 04m
Length of Day
12h 08m
Waxing Crescent, 48% of the Moon is Illuminated
Sep 22
Waxing Crescent
Sep 22
First Quarter
Sep 29
Full
Oct 8
Last Quarter
Oct 15
New

Hourly Weather History & Observations

Time (EDT) Temp. Dew Point Humidity Pressure Visibility Wind Dir Wind Speed Gust Speed Precip Events Conditions
12:14 AM 52.0 °F 50.2 °F 94% 29.79 in 10.0 mi Calm Calm - N/A   Overcast
12:34 AM 51.8 °F 50.0 °F 94% 29.78 in 7.0 mi SSE 4.6 mph - N/A   Overcast
12:54 AM 52.2 °F 50.4 °F 94% 29.78 in 7.0 mi Calm Calm - N/A   Overcast
1:13 AM 50.9 °F 49.1 °F 94% 29.77 in 5.0 mi Calm Calm - N/A   Mostly Cloudy
1:34 AM 49.1 °F 47.3 °F 93% 29.77 in 4.0 mi South 4.6 mph - N/A   Clear
1:54 AM 49.1 °F 47.5 °F 94% 29.76 in 4.0 mi SSW 3.5 mph - N/A   Clear
2:13 AM 49.1 °F 47.5 °F 94% 29.76 in 4.0 mi SSW 4.6 mph - N/A   Clear
2:34 AM 48.7 °F 47.3 °F 95% 29.76 in 3.0 mi SSW 3.5 mph - N/A   Clear
2:53 AM 48.2 °F 46.6 °F 94% 29.76 in 2.5 mi SSW 4.6 mph - N/A   Clear
3:14 AM 48.4 °F 47.3 °F 96% 29.74 in 2.0 mi South 6.9 mph - N/A   Scattered Clouds
3:54 AM 49.1 °F 47.8 °F 95% 29.77 in 3.0 mi SW 4.6 mph - N/A   Overcast
4:14 AM 49.3 °F 48.2 °F 96% 29.78 in 4.0 mi WSW 3.5 mph - N/A   Overcast
4:34 AM 49.5 °F 48.2 °F 95% 29.80 in 5.0 mi WSW 4.6 mph - N/A   Overcast
4:54 AM 50.0 °F 48.6 °F 95% 29.82 in 5.0 mi West 4.6 mph - N/A Rain Rain
5:14 AM 50.0 °F 48.9 °F 96% 29.79 in 7.0 mi SSW 4.6 mph - N/A Rain Light Rain
5:34 AM 50.0 °F 48.6 °F 95% 29.79 in 10.0 mi SW 5.8 mph - N/A   Mostly Cloudy
5:54 AM 49.5 °F 47.8 °F 94% 29.79 in 10.0 mi SW 5.8 mph - N/A   Scattered Clouds
6:14 AM 49.5 °F 48.0 °F 95% 29.80 in 10.0 mi WSW 4.6 mph - N/A   Clear
6:34 AM 49.6 °F 48.2 °F 95% 29.80 in 10.0 mi WSW 5.8 mph - N/A   Scattered Clouds
6:54 AM 50.0 °F 48.2 °F 94% 29.81 in 10.0 mi WSW 3.5 mph - N/A   Mostly Cloudy
7:14 AM 49.6 °F 47.7 °F 93% 29.82 in 10.0 mi SW 5.8 mph - N/A   Mostly Cloudy
7:34 AM 48.6 °F 46.8 °F 93% 29.82 in 7.0 mi SW 3.5 mph - N/A   Scattered Clouds
7:54 AM 48.2 °F 46.4 °F 93% 29.82 in 4.0 mi SSW 3.5 mph - N/A   Scattered Clouds
8:14 AM 48.2 °F 46.6 °F 94% 29.82 in 3.0 mi Calm Calm - N/A   Scattered Clouds
8:34 AM 49.5 °F 48.0 °F 95% 29.83 in 3.0 mi SSW 4.6 mph - N/A   Mostly Cloudy
8:54 AM 51.1 °F 49.5 °F 94% 29.83 in 3.0 mi SW 3.5 mph - N/A   Mostly Cloudy
9:13 AM 51.4 °F 49.6 °F 94% 29.83 in 4.0 mi SSW 8.1 mph - N/A Rain Light Rain
9:34 AM 51.4 °F 49.6 °F 94% 29.83 in 3.0 mi SW 8.1 mph - N/A   Overcast
9:54 AM 52.0 °F 50.0 °F 93% 29.83 in 4.0 mi SW 4.6 mph - N/A   Overcast
10:14 AM 52.7 °F 50.0 °F 91% 29.84 in 7.0 mi SW 5.8 mph - N/A   Overcast
10:53 AM 53.1 °F 49.5 °F 88% 29.84 in 7.0 mi West 5.8 mph - N/A Rain Light Rain
11:14 AM 53.8 °F 50.0 °F 87% 29.83 in 10.0 mi SW 4.6 mph - N/A   Overcast
11:33 AM 53.4 °F 49.3 °F 86% 29.85 in 7.0 mi West 9.2 mph - N/A Rain Rain
11:54 AM 46.8 °F 42.8 °F 86% 29.85 in 5.0 mi NNE 6.9 mph - N/A Rain Rain
12:14 PM 47.3 °F 44.1 °F 88% 29.86 in 7.0 mi Calm Calm - N/A Rain Light Rain
12:34 PM 46.8 °F 44.2 °F 91% 29.87 in 10.0 mi NNW 9.2 mph - N/A Rain Light Rain
1:14 PM 46.8 °F 44.4 °F 92% 29.89 in 2.5 mi North 11.5 mph 19.6 mph N/A Rain Heavy Rain
1:34 PM 48.7 °F 46.6 °F 92% 29.90 in 7.0 mi North 8.1 mph - N/A Rain Light Rain
2:14 PM 47.3 °F 44.1 °F 88% 29.93 in 7.0 mi NNW 3.5 mph - N/A Rain Light Rain
2:34 PM 48.0 °F 44.8 °F 89% 29.94 in 10.0 mi NW 3.5 mph - N/A Rain Light Rain
3:14 PM 50.5 °F 45.7 °F 83% 29.96 in 10.0 mi WSW 5.8 mph - N/A   Mostly Cloudy
3:34 PM 52.7 °F 46.0 °F 78% 29.97 in 10.0 mi West 6.9 mph - N/A   Scattered Clouds
4:14 PM 54.7 °F 45.5 °F 71% 29.98 in 10.0 mi West 12.7 mph - N/A   Scattered Clouds
4:34 PM 55.8 °F 46.0 °F 70% 29.99 in 10.0 mi West 12.7 mph - N/A   Scattered Clouds
4:54 PM 56.5 °F 45.9 °F 68% 30.00 in 10.0 mi West 11.5 mph - N/A   Clear
5:54 PM 54.5 °F 45.9 °F 73% 30.02 in 10.0 mi West 11.5 mph 17.3 mph N/A   Scattered Clouds
6:14 PM 55.0 °F 45.5 °F 70% 30.03 in 10.0 mi West 12.7 mph 17.3 mph N/A   Scattered Clouds
6:33 PM 54.9 °F 45.7 °F 71% 30.04 in 10.0 mi West 6.9 mph - N/A   Clear
6:54 PM 54.5 °F 45.1 °F 71% 30.05 in 10.0 mi West 10.4 mph - N/A   Clear
7:14 PM 52.7 °F 45.5 °F 76% 30.05 in 10.0 mi West 5.8 mph - N/A   Clear
7:34 PM 50.5 °F 45.3 °F 82% 30.05 in 10.0 mi West 3.5 mph - N/A   Clear
7:54 PM 50.2 °F 44.8 °F 82% 30.07 in 10.0 mi West 3.5 mph - N/A   Clear
8:14 PM 49.5 °F 44.6 °F 83% 30.07 in 10.0 mi WSW 3.5 mph - N/A   Scattered Clouds
8:34 PM 49.3 °F 45.0 °F 85% 30.08 in 10.0 mi West 5.8 mph - N/A   Mostly Cloudy
8:54 PM 50.0 °F 44.8 °F 82% 30.08 in 10.0 mi West 3.5 mph - N/A   Mostly Cloudy
9:14 PM 49.5 °F 45.0 °F 84% 30.10 in 10.0 mi NW 12.7 mph 19.6 mph N/A   Overcast
9:34 PM 49.5 °F 45.3 °F 86% 30.10 in 7.0 mi NW 3.5 mph - N/A Rain Light Rain
9:54 PM 48.6 °F 45.7 °F 90% 30.11 in 10.0 mi WSW 4.6 mph - N/A   Light Drizzle
10:14 PM 48.6 °F 45.9 °F 90% 30.11 in 10.0 mi SW 4.6 mph - N/A   Overcast
10:34 PM 48.4 °F 45.9 °F 91% 30.11 in 10.0 mi Calm Calm - N/A   Overcast
10:54 PM 47.7 °F 45.5 °F 92% 30.11 in 10.0 mi Calm Calm - N/A   Overcast
11:14 PM 48.2 °F 46.0 °F 92% 30.12 in 7.0 mi West 3.5 mph - N/A   Overcast
11:34 PM 48.4 °F 46.4 °F 93% 30.12 in 10.0 mi Calm Calm - N/A Rain Light Rain
11:54 PM 48.9 °F 46.6 °F 92% 30.12 in 7.0 mi NNE 3.5 mph - N/A   Overcast